This is the latest recevied weather packets stored in our database for station/object KJ5JYX. If no packets are shown the sender has not sent any weather packets the latest 10 day(s).
| Time | Temp. | Humidity | Pressure | Rain* | Wind** | Luminosity | Snow |
|---|---|---|---|---|---|---|---|
| 1777649823 | 14.44° C | 99% | 1014.2 hPa | 0 mm | - | 148 W/m² | - |
| 1777649520 | 14.44° C | 99% | 1014.4 hPa | 0 mm | - | 168 W/m² | - |
| 1777649216 | 14.44° C | 99% | 1014.6 hPa | 0 mm | - | 115 W/m² | - |
| 1777648913 | 13.89° C | 99% | 1014.8 hPa | 0 mm | - | 116 W/m² | - |
| 1777648610 | 13.89° C | 99% | 1014.5 hPa | 0 mm | - | 108 W/m² | - |
| 1777648307 | 13.89° C | 99% | 1015.1 hPa | 0 mm | - | 94 W/m² | - |
| 1777648003 | 13.89° C | 99% | 1014.9 hPa | 0 mm | - | 122 W/m² | - |
| 1777647699 | 13.89° C | 99% | 1014.7 hPa | 0 mm | - | 101 W/m² | - |
| 1777647395 | 13.89° C | 99% | 1015 hPa | 0 mm | - | 116 W/m² | - |
| 1777647094 | 13.89° C | 99% | 1014.7 hPa | 0 mm | - | 93 W/m² | - |
| 1777646790 | 13.89° C | 99% | 1014.6 hPa | 0 mm | - | 121 W/m² | - |
| 1777646490 | 13.89° C | 99% | 1014.4 hPa | 1.27 mm | - | 82 W/m² | - |
| 1777646187 | 13.89° C | 99% | 1014.8 hPa | 1.27 mm | - | 78 W/m² | - |
| 1777645885 | 13.89° C | 99% | 1014.8 hPa | 3.05 mm | - | 60 W/m² | - |
| 1777645581 | 13.89° C | 99% | 1014.7 hPa | 1.78 mm | - | 47 W/m² | - |
| 1777645277 | 13.89° C | 99% | 1015.3 hPa | 1.27 mm | - | 36 W/m² | - |
| 1777644973 | 13.89° C | 99% | 1015.6 hPa | 1.27 mm | - | 36 W/m² | - |
| 1777644671 | 13.89° C | 99% | 1014.7 hPa | 1.27 mm | - | 32 W/m² | - |
| 1777644367 | 13.89° C | 99% | 1013.9 hPa | 0 mm | - | 27 W/m² | - |
| 1777644064 | 13.89° C | 99% | 1013.8 hPa | 1.78 mm | - | 34 W/m² | - |
| 1777643760 | 13.89° C | 99% | 1014.8 hPa | 1.78 mm | - | 27 W/m² | - |
| 1777643458 | 13.89° C | 99% | 1014.9 hPa | 3.05 mm | - | 36 W/m² | - |
| 1777643154 | 13.89° C | 99% | 1014.9 hPa | 6.1 mm | - | 41 W/m² | - |
| 1777642851 | 13.89° C | 99% | 1014.5 hPa | 6.1 mm | - | 27 W/m² | - |
| 1777642548 | 14.44° C | 99% | 1014.7 hPa | 8.89 mm | - | 15 W/m² | - |
* Rain latest hour (hover to see other rain measurements)
** Current wind speed in m/s (hover to see current wind gust speed)